Location: Baia Mare
(47.6567°N, 23.5850°E)
Time: 23:39:35
(UTC+03:00)

ISS - Pass Details

Date: 27 July 2018
Orbit: 402 x 408 km, 51.6° (Epoch: 22 July)

Event Time Altitude Azimuth Distance (km) Brightness Sun altitude
Rises 00:23:58 0° 291° (WNW) 2,326 0.6 -21.3°
Reaches altitude 10° 00:26:05 10° 296° (WNW) 1,465 -0.5 -21.4°
Maximum altitude 00:29:19 55° 16° (NNE) 493 -3.2 -21.6°
Enters shadow 00:29:20 55° 17° (NNE) 493 -3.2 -21.6°
